SCOUT A DEB, 3122

Orbit data source: Space-Track

SCOUT A DEB, 3122 is space debris in LEO originally from a launch on Mon, 25 Sep 1967 UTC launched from the Air Force Western Test Range (AFWTR). Debris objects in space refer to the collection of defunct objects orbiting the Earth. Examples of debris include non-operational satellites, rocket bodies, and fragments generated from explosions, collisions, or faulty payload assembly.

Loading next visibility...
Identifier
3122, 1967-092D
Orbit
LEO
Country
Flag of USUS
Related business
Manufacturer
Unknown
Mission
Spacecraft
Bus & Motor
Unknown
Mass
Unknown
Launch date (UTC)
1967-09-25 (59 years ago)
Launch vehicle
Unknown
Launch site
Air Force Western Test Range (AFWTR)
Object type
Payload
Rocket body
Debris
Shape & HBR
Unknown shape, 0.1 m
Radar Cross Section
Small (<0.1 m²)

Expand to show TLE details & history
Last TLE update: 5 days ago

TLE from 5 days ago
0 SCOUT A DEB
1 03122U 67092D   26136.87172897  .00000123  00000-0  23668-3 0  9993
2 03122  89.0575  91.0582 0184546 313.2628  70.8334 13.25986801578875
Epoch: 2026-05-16T20:55Z
TLE epoch observation values (Epoch: 2026-05-16T20:55:17.383Z)
Latitude
26.13581°
Longitude
-96.88656°
Altitude
1,121.759 km
Speed
7.315 km/s
True Right ascension
06h 06m 04s
True Declination
26° 00' 24"
Sunlit
Object was in daylight at epoch
Visualization orbit readout
Latitude
Unknown
Longitude
Unknown
Altitude
Unknown
Speed
Unknown
Apparent Right ascension
Unknown
Apparent Declination
Unknown
Sunlit
N/A
Visualization observer readout
Local Sidereal Time
20:09:07
Azimuth
Unknown
Elevation
Unknown
Doppler factor
Unknown
Orbital elements
Apogee altitude
1,298.12 km
Perigee altitude
1,019.929 km
Semi-major axis
7,537.162 km
Eccentricity
0.01845
Inclination
89.0575°
RAAN
91.0582°
Arg. of periapsis
313.2628°
True anomaly
72.84574°
Mean anomaly
70.8334°
Eccentric anomaly
71.83809°
Mean motion
3.31689 °/min
Orbital period
108.54 mins
BSTAR
0.00023668
Loading maneuver chart data...
Computing Atmospheric mass density...
Loading historical data...
Loading historical data...
Loading historical data...
Loading historical data...
Loading historical data...
Loading historical data...
Loading historical data...

Documentation

Showing up to 5 results
|